Weather History for Pecos, TX

Change the Weather History Date:

Tuesday, December 18, 2012

  Actual Average Record
Temperature  
Mean Temperature 54 °F -  
Max Temperature 77 °F 60 °F 82 °F (1980)
Min Temperature 31 °F 27 °F 16 °F (1981)
Degree Days  
Heating Degree Days 11    
Growing Degree Days 4 (Base 50)    
Moisture  
Dew Point 19 °F    
Average Humidity 31    
Maximum Humidity 51    
Minimum Humidity 13    
Precipitation  
Precipitation 0.00 in - - ()
Sea Level Pressure  
Sea Level Pressure 29.83 in    
Wind  
Wind Speed 3 mph (SE)    
Max Wind Speed 9 mph    
Max Gust Speed -    
Visibility 10 miles    
Events      
Averages and records for this station are not official NWS values.
T = Trace of Precipitation, MM = Missing Value Source: NWS Daily Summary

Daily Weather History Graph

Daily Weather History Graph

Search for Another Location

Airport:

Trip Planner

Search our weather history database for the weather conditions in past years. The results will help you decide how hot, cold, wet, or windy it might be!

Date:

Astronomy

Dec. 18, 2012 Rise Set
Actual Time 7:47 AM CST 5:54 PM CST
Civil Twilight 7:20 AM CST 6:21 PM CST
Nautical Twilight 6:50 AM CST 6:51 PM CST
Astronomical Twilight 6:20 AM CST 7:21 PM CST
Moon 11:49 AM CST (12/18) No Moon Set
Length of Visible Light 11h 00m
Length of Day
10h 06m
Waxing Crescent, 35% of the Moon is Illuminated
Dec 18
Waxing Crescent
Dec 19
First Quarter
Dec 28
Full
Jan 4
Last Quarter
Jan 11
New

Hourly Weather History & Observations

Time (CST) Temp. Windchill Dew Point Humidity Pressure Visibility Wind Dir Wind Speed Gust Speed Precip Events Conditions
12:15 AM 49.8 °F - 20.1 °F 31% 29.94 in 10.0 mi West 3.5 mph - N/A   Clear
12:35 AM 40.6 °F 37.5 °F 17.6 °F 39% 29.93 in 10.0 mi SSE 4.6 mph - N/A   Clear
12:55 AM 40.5 °F - 18.1 °F 41% 29.93 in 10.0 mi Calm Calm - N/A   Clear
1:15 AM 39.2 °F - 17.6 °F 42% 29.92 in 10.0 mi Calm Calm - N/A   Clear
1:35 AM 40.8 °F - 17.4 °F 39% 29.91 in 10.0 mi Calm Calm - N/A   Clear
1:55 AM 41.7 °F - 17.4 °F 38% 29.90 in 10.0 mi Calm Calm - N/A   Clear
2:15 AM 40.3 °F 38.2 °F 16.7 °F 39% 29.90 in 10.0 mi NNE 3.5 mph - N/A   Clear
2:35 AM 36.5 °F - 15.8 °F 43% 29.90 in 10.0 mi Calm Calm - N/A   Clear
2:55 AM 39.2 °F 37.0 °F 16.7 °F 40% 29.90 in 10.0 mi SW 3.5 mph - N/A   Clear
3:15 AM 36.5 °F 33.9 °F 16.2 °F 44% 29.89 in 10.0 mi South 3.5 mph - N/A   Clear
3:35 AM 35.2 °F - 16.0 °F 45% 29.90 in 10.0 mi Calm Calm - N/A   Clear
3:55 AM 34.9 °F - 15.8 °F 46% 29.89 in 10.0 mi Calm Calm - N/A   Clear
4:15 AM 34.9 °F - 16.3 °F 47% 29.88 in 10.0 mi Calm Calm - N/A   Clear
4:35 AM 34.9 °F 30.8 °F 15.6 °F 45% 29.88 in 10.0 mi SSE 4.6 mph - N/A   Clear
4:55 AM 34.0 °F - 16.0 °F 48% 29.86 in 10.0 mi Calm Calm - N/A   Clear
5:15 AM 32.9 °F 28.5 °F 14.9 °F 48% 29.86 in 10.0 mi WSW 4.6 mph - N/A   Clear
5:35 AM 32.0 °F 26.4 °F 15.4 °F 51% 29.86 in 10.0 mi WSW 5.8 mph - N/A   Clear
5:55 AM 32.5 °F - 15.6 °F 50% 29.85 in 10.0 mi Calm Calm - N/A   Clear
6:15 AM 31.6 °F - 14.9 °F 50% 29.85 in 10.0 mi Calm Calm - N/A   Clear
6:35 AM 32.0 °F 28.7 °F 15.8 °F 51% 29.85 in 10.0 mi ENE 3.5 mph - N/A   Clear
6:55 AM 34.7 °F - 16.0 °F 46% 29.86 in 10.0 mi Calm Calm - N/A   Clear
7:15 AM 38.7 °F - 17.2 °F 42% 29.88 in 10.0 mi Calm Calm - N/A   Clear
7:35 AM 38.8 °F - 17.8 °F 43% 29.88 in 10.0 mi Calm Calm - N/A   Clear
7:55 AM 33.8 °F - 16.3 °F 49% 29.88 in 7.0 mi Calm Calm - N/A   Clear
8:15 AM 33.8 °F - 16.5 °F 49% 29.89 in 10.0 mi Calm Calm - N/A   Clear
8:35 AM 36.9 °F 34.3 °F 17.1 °F 45% 29.89 in 10.0 mi SSW 3.5 mph - N/A   Clear
8:55 AM 39.4 °F - 16.5 °F 40% 29.89 in 10.0 mi Calm Calm - N/A   Clear
9:35 AM 46.2 °F - 19.4 °F 34% 29.90 in 10.0 mi Calm Calm - N/A   Clear
9:55 AM 50.5 °F - 21.0 °F 31% 29.90 in 10.0 mi Calm Calm - N/A   Clear
10:15 AM 55.6 °F - 21.2 °F 26% 29.91 in 10.0 mi Calm Calm - N/A   Clear
10:35 AM 58.5 °F - 20.8 °F 23% 29.90 in 10.0 mi Calm Calm - N/A   Clear
11:35 AM 66.2 °F - 22.1 °F 19% 29.89 in 10.0 mi South 3.5 mph - N/A   Clear
11:55 AM 68.4 °F - 22.3 °F 17% 29.88 in 10.0 mi South 3.5 mph - N/A   Clear
1:15 PM 72.9 °F - 21.9 °F 15% 29.82 in 10.0 mi ESE 8.1 mph - N/A   Clear
1:35 PM 74.3 °F - 22.8 °F 15% 29.81 in 10.0 mi ESE 9.2 mph - N/A   Clear
1:55 PM 74.8 °F - 22.8 °F 14% 29.79 in 10.0 mi East 8.1 mph - N/A   Clear
2:35 PM 75.2 °F - 22.8 °F 14% 29.78 in 10.0 mi SE 4.6 mph - N/A   Clear
2:55 PM 76.6 °F - 23.0 °F 14% 29.77 in 10.0 mi East 3.5 mph - N/A   Clear
3:15 PM 77.7 °F - 23.0 °F 13% 29.77 in 10.0 mi ENE 3.5 mph - N/A   Clear
3:35 PM 77.4 °F - 22.6 °F 13% 29.76 in 10.0 mi East 3.5 mph - N/A   Clear
3:55 PM 77.2 °F - 22.8 °F 13% 29.76 in 10.0 mi ESE 3.5 mph - N/A   Clear
4:15 PM 77.0 °F - 22.6 °F 13% 29.76 in 10.0 mi Calm Calm - N/A   Clear
4:35 PM 76.6 °F - 22.5 °F 13% 29.76 in 10.0 mi ESE 4.6 mph - N/A   Clear
4:55 PM 75.2 °F - 22.1 °F 14% 29.76 in 10.0 mi ESE 8.1 mph - N/A   Clear
5:15 PM 74.1 °F - 22.3 °F 14% 29.76 in 10.0 mi ESE 6.9 mph - N/A   Clear
5:35 PM 69.3 °F - 20.8 °F 16% 29.76 in 10.0 mi SE 8.1 mph - N/A   Clear
5:55 PM 64.6 °F - 19.4 °F 18% 29.76 in 7.0 mi SE 6.9 mph - N/A   Clear
6:15 PM 63.5 °F - 19.2 °F 18% 29.76 in 10.0 mi SE 8.1 mph - N/A   Clear
6:35 PM 60.4 °F - 19.2 °F 20% 29.77 in 7.0 mi SE 8.1 mph - N/A   Clear
6:55 PM 57.7 °F - 19.2 °F 22% 29.76 in 7.0 mi SE 8.1 mph - N/A   Clear
7:15 PM 55.8 °F - 19.4 °F 24% 29.76 in 7.0 mi SE 5.8 mph - N/A   Clear
7:35 PM 54.5 °F - 19.4 °F 25% 29.77 in 7.0 mi SSE 5.8 mph - N/A   Clear
7:55 PM 53.2 °F - 19.4 °F 27% 29.77 in 10.0 mi SSW 6.9 mph - N/A   Clear
8:35 PM 48.7 °F - 18.3 °F 30% 29.77 in 10.0 mi SW 9.2 mph - N/A   Clear
9:15 PM 50.2 °F - 18.5 °F 29% 29.77 in 10.0 mi WSW 8.1 mph - N/A   Clear
9:55 PM 50.0 °F - 18.3 °F 29% 29.76 in 10.0 mi West 3.5 mph - N/A   Clear
10:15 PM 49.6 °F - 19.6 °F 31% 29.75 in 10.0 mi NNE 3.5 mph - N/A   Clear
10:35 PM 48.4 °F - 18.5 °F 31% 29.76 in 10.0 mi NNW 5.8 mph - N/A   Clear
10:55 PM 49.1 °F - 17.8 °F 29% 29.76 in 10.0 mi North 4.6 mph - N/A   Clear
11:15 PM 47.7 °F - 17.1 °F 30% 29.76 in 10.0 mi North 5.8 mph - N/A   Clear
11:35 PM 46.0 °F - 16.7 °F 31% 29.77 in 10.0 mi Calm Calm - N/A   Clear
11:55 PM 39.9 °F 36.7 °F 14.9 °F 36% 29.76 in 10.0 mi SSW 4.6 mph - N/A   Clear